Location: Borea
(45.6167°N, 23.0167°E)
Time: 20:58:10
(UTC+00:00)

Cosmos 1844 - Visible Passes

Search period start: 19 September 2024 00:00
Search period end: 29 September 2024 00:00
Orbit: 823 x 865 km, 70.9° (Epoch: 18 September)

Date Brightness Start Highest point End Pass type
(mag) Time Alt. Az. Time Alt. Az. Time Alt. Az.
26 Sep 4.7 03:33:35 10° S 03:38:58 50° ESE 03:44:21 10° NE visible
27 Sep 4.7 03:19:22 10° S 03:24:44 48° ESE 03:30:05 10° NE visible
28 Sep 4.7 03:05:10 10° S 03:10:30 47° ESE 03:15:49 10° NE visible
